Theta_e
315 311 308 308 307 308 308 309 305 306 306 306 306 307 310 308 308 310 310 309 311 313 313 311 312 313 314 314 315 315 316 317 317 320 321 323 325 323 325 323 322 324 331 330 331 333 334 340 341 346 349 346 347 347
314 312 308 308 307 308 309 306 306 306 306 306 306 306 309 309 308 309 311 308 308 310 314 310 310 311 312 313 315 313 315 316 318 320 321 322 323 323 325 324 323 325 324 325 329 330 339 341 344 340 338 342 346 347
314 310 309 308 307 307 309 305 306 306 306 306 306 306 309 309 308 308 310 309 310 311 313 312 314 312 310 310 312 315 316 315 315 315 317 319 323 321 324 325 325 329 328 331 327 330 338 335 339 336 333 339 344 343
312 310 309 308 307 308 306 306 306 306 306 306 306 306 307 309 308 308 310 309 309 310 315 314 311 312 312 312 311 311 312 313 313 315 316 317 317 317 320 322 327 326 327 329 328 329 333 336 334 329 338 342 342 342
312 309 309 307 308 309 305 306 306 306 306 306 306 306 306 308 307 309 309 309 309 311 316 315 313 312 311 312 312 312 312 314 315 317 317 317 316 316 317 318 320 321 325 328 328 330 329 330 327 331 340 342 341 342
311 309 308 307 309 306 306 306 306 306 306 307 308 307 306 307 307 310 312 310 309 310 314 316 313 313 311 312 312 313 314 315 315 316 317 316 315 316 317 318 316 316 320 323 328 327 324 325 326 330 335 340 339 340
309 308 307 308 307 306 306 306 306 306 308 309 308 307 306 307 309 312 314 312 310 311 314 315 317 314 311 312 314 314 311 312 312 313 314 315 316 316 317 319 316 316 316 319 322 326 325 325 325 325 336 338 338 339
308 308 308 307 306 306 306 306 306 308 308 308 307 306 306 307 308 312 312 309 308 311 312 315 318 317 314 317 318 313 315 312 310 312 313 314 316 317 318 317 316 316 316 317 318 319 321 321 324 325 335 338 340 340
308 308 308 306 306 306 306 306 308 307 307 307 306 308 310 312 313 313 310 310 309 312 314 315 319 322 316 316 312 312 313 315 314 312 314 314 317 318 317 317 317 316 317 317 317 316 317 320 321 325 335 337 339 340
308 308 306 306 306 306 306 306 308 307 309 308 310 313 314 314 311 310 312 314 315 314 314 315 315 318 314 314 313 311 314 316 321 319 316 316 318 317 317 317 317 317 316 316 316 316 316 319 321 330 335 336 338 339
307 305 306 306 306 306 306 307 308 307 310 313 313 315 312 311 313 313 314 317 316 316 316 317 317 318 314 315 312 311 315 316 321 321 320 320 319 318 317 319 319 317 317 316 316 315 315 316 321 323 326 333 333 334
305 305 306 306 307 306 307 308 308 310 312 311 311 310 311 314 317 316 319 319 319 321 318 319 319 317 313 309 311 313 315 317 321 316 318 321 321 318 317 316 316 317 319 316 316 315 316 318 319 322 324 330 332 333
305 306 306 307 306 307 308 308 306 306 308 310 313 315 316 316 318 319 320 320 321 319 318 319 321 319 312 311 313 314 316 318 316 314 317 314 315 313 314 316 319 317 319 317 316 315 315 316 317 322 323 332 332 332
306 307 307 306 306 308 308 307 306 307 310 315 316 315 318 318 318 318 319 320 318 318 318 317 317 319 314 314 314 316 316 315 317 318 314 313 311 315 321 323 320 319 320 321 318 316 317 318 319 322 324 328 333 333
307 307 306 307 308 308 307 307 306 310 314 317 317 320 317 317 317 318 318 317 317 316 316 316 317 318 318 316 316 316 318 320 315 315 307 308 315 315 321 325 324 324 323 320 317 317 318 318 320 326 330 333 333 335
306 306 308 308 308 308 307 307 309 312 314 317 317 317 317 318 318 317 317 317 316 316 316 316 319 323 323 324 323 319 318 318 313 311 313 313 314 315 317 320 323 327 323 321 322 325 326 329 331 332 333 335 337 339
306 308 308 307 308 308 307 310 313 315 317 318 317 316 316 317 317 316 317 316 314 317 320 321 324 323 322 322 320 316 316 315 315 317 315 313 313 316 316 319 320 321 324 325 326 328 330 332 333 333 336 336 337 338
308 308 307 307 308 309 311 312 315 316 318 316 318 316 316 316 317 316 316 315 316 317 320 320 319 319 320 320 319 316 317 318 317 317 316 316 313 315 312 314 314 315 316 318 323 325 328 329 331 329 330 333 335 335
307 307 306 307 309 313 316 316 316 318 318 317 317 317 318 317 317 317 317 316 316 317 317 317 318 318 318 318 318 318 317 318 319 319 316 312 312 312 312 311 311 312 311 313 313 317 321 321 325 327 328 330 332 330
308 308 309 310 310 315 317 317 315 318 318 317 316 318 317 319 318 317 317 318 318 318 318 318 317 317 317 317 316 317 317 318 318 316 314 313 310 310 310 309 310 310 311 310 311 311 315 315 315 318 319 323 327 328
309 310 310 310 313 313 316 315 316 316 317 318 317 318 318 318 318 318 316 316 316 317 317 317 317 317 316 316 316 315 316 317 317 314 312 311 310 309 309 309 308 309 310 310 311 312 312 314 314 315 318 319 320 320
310 309 312 312 313 313 314 313 315 315 317 319 319 319 320 319 318 316 317 316 317 317 317 318 318 318 318 318 318 317 316 317 313 310 308 309 310 309 308 308 308 309 308 309 309 312 313 314 313 316 317 318 319 320
309 311 312 311 314 312 314 312 317 317 321 320 319 321 322 321 319 317 316 317 316 317 316 317 317 317 317 316 316 317 317 316 312 310 309 308 307 306 306 306 306 306 307 307 308 311 313 313 314 315 316 316 317 317
310 313 314 315 314 315 316 318 316 318 319 321 322 324 324 323 320 318 315 317 316 316 316 318 316 315 315 315 314 313 313 312 310 310 308 307 307 306 306 306 305 305 304 306 308 311 313 313 312 313 313 313 313 313
313 313 313 312 316 318 319 320 320 321 324 324 325 325 325 320 324 320 317 317 316 316 315 315 315 314 313 312 311 311 311 309 309 310 308 306 305 305 305 305 305 305 304 305 306 309 312 312 312 312 311 310 310 311
316 317 315 319 320 320 321 323 322 325 324 326 325 324 323 322 322 322 319 317 317 317 315 314 314 313 312 310 310 309 308 307 307 307 306 305 305 305 305 306 307 305 303 304 304 306 308 311 310 310 310 309 308 308
315 318 317 317 319 319 322 322 323 326 327 328 327 326 327 326 322 320 318 317 317 316 313 311 311 310 310 308 307 307 306 306 306 305 305 304 304 304 304 304 305 304 303 303 303 304 304 306 308 308 308 308 308 307
317 318 320 321 321 321 326 329 329 328 327 323 325 323 323 322 322 319 318 317 315 312 311 309 308 308 307 307 306 306 306 306 305 305 305 305 305 304 304 304 304 302 303 303 302 303 303 303 303 303 303 304 304 305
317 317 319 322 322 325 327 329 328 323 321 325 326 325 325 322 320 317 315 313 312 310 309 310 310 307 308 307 307 306 306 305 305 307 307 307 307 306 304 304 304 304 304 304 303 302 302 301 302 302 302 303 303 303
318 316 320 324 328 330 329 326 325 321 320 319 319 320 321 319 315 312 311 311 311 309 310 309 309 308 308 308 307 307 306 306 305 305 306 306 305 304 304 304 304 304 303 303 304 303 303 302 303 303 303 303 303 303
321 320 323 328 329 328 323 321 320 320 319 321 321 321 318 316 313 312 311 310 308 308 309 310 309 308 308 307 307 307 307 306 305 304 304 303 304 304 304 304 304 303 303 304 304 304 303 303 304 304 304 304 303 303
325 327 329 330 330 325 323 324 324 324 323 322 321 318 317 316 316 315 312 310 309 310 308 308 308 307 306 306 305 305 304 304 304 304 304 303 303 303 303 303 303 304 304 304 304 304 304 304 304 304 304 303 303 303
328 328 329 329 326 325 325 326 326 325 324 324 323 321 319 318 319 316 309 309 310 309 309 307 306 306 306 305 305 305 304 305 304 303 303 303 303 302 302 303 304 304 304 304 304 304 304 304 304 304 304 303 303 303
Wind_Speed
12 9 8 7 6 6 7 9 9 10 12 13 12 13 12 13 14 9 4 9 8 3 2 2 2 2 2 2 3 4 4 3 4 5 4 5 6 7 9 14 12 15 13 13 16 20 23 4 3 7 6 9 11 12
11 9 7 6 6 7 7 7 8 9 11 12 12 12 10 10 11 9 3 6 5 3 5 2 7 9 7 5 6 1 4 1 3 4 2 3 6 4 9 11 14 14 12 10 9 7 8 6 6 4 8 10 11 13
10 9 7 6 7 5 6 7 8 9 10 12 12 10 9 9 9 7 6 6 4 3 4 5 3 3 7 11 5 3 3 4 1 4 5 3 6 4 8 9 16 4 6 9 14 6 2 6 3 5 10 11 12 13
10 8 8 7 6 6 6 7 9 10 12 13 13 10 8 7 8 8 4 4 2 2 3 5 4 3 1 4 8 14 10 4 5 4 6 6 6 3 8 9 8 11 5 8 16 17 6 5 5 13 12 10 11 13
11 9 8 5 4 5 7 8 10 12 13 14 14 10 7 5 7 6 2 1 1 4 4 4 7 1 1 4 10 12 13 10 7 7 8 9 9 9 10 12 14 13 14 12 11 6 7 5 12 11 11 11 11 14
8 8 6 4 3 5 6 9 12 14 15 13 10 8 4 4 7 3 3 1 2 1 2 1 3 2 2 5 8 9 10 8 7 4 6 9 17 10 8 14 19 19 17 15 12 2 7 12 11 12 13 10 10 12
10 7 5 3 4 5 7 11 14 16 13 10 7 5 2 4 4 4 5 3 4 2 2 3 1 4 4 6 8 4 3 3 3 3 5 11 11 12 15 19 17 16 16 16 13 7 13 10 13 15 12 10 6 9
8 7 5 3 3 4 8 12 14 13 9 6 4 2 4 5 4 1 2 3 6 4 2 2 2 3 2 4 2 1 3 2 4 4 4 8 10 12 15 21 20 22 20 19 17 14 14 17 14 14 10 8 7 6
8 6 4 3 3 5 9 11 11 8 7 3 1 0 2 1 1 2 0 2 4 2 2 2 4 4 1 2 1 2 2 3 4 5 5 5 7 9 13 17 16 16 19 21 18 15 13 15 17 14 9 8 5 6
7 5 3 3 4 6 8 9 8 7 5 2 1 3 1 3 0 3 1 2 3 3 2 3 2 3 2 1 1 2 3 3 3 6 4 5 14 21 20 21 18 15 17 17 16 14 12 13 17 8 10 4 3 4
6 4 3 4 5 7 9 8 8 5 1 1 1 1 2 2 2 2 1 2 2 2 4 3 4 4 1 4 2 2 3 3 3 1 3 4 6 6 6 16 15 19 22 18 16 11 9 16 13 7 11 7 4 4
5 3 4 5 6 8 8 6 3 1 0 1 2 2 1 3 3 2 1 2 3 2 1 5 6 3 1 1 2 3 3 3 4 4 4 3 3 8 11 14 21 23 18 19 16 10 12 15 13 5 9 12 8 8
3 4 5 6 7 7 4 1 1 1 0 1 2 2 1 3 2 1 3 1 4 4 5 8 7 1 2 2 2 2 3 3 5 2 3 4 11 21 25 17 16 15 12 11 17 14 13 21 12 7 11 12 10 10
2 6 7 8 5 3 2 1 0 1 2 2 1 3 2 1 1 2 5 5 6 7 9 8 5 2 1 1 1 3 3 3 5 3 3 10 21 23 20 5 9 11 9 14 14 13 11 12 9 8 15 17 13 13
4 7 9 2 1 3 3 2 2 2 3 2 3 1 2 2 4 6 6 6 7 5 5 5 3 3 2 2 2 2 5 4 3 4 3 11 17 16 17 14 9 11 10 10 9 7 13 13 10 9 14 12 12 13
7 6 2 3 4 6 2 2 1 2 2 2 3 3 4 5 7 5 6 7 6 6 5 1 4 3 3 2 1 4 4 3 3 4 12 13 16 16 16 15 14 12 12 9 4 5 5 5 8 6 6 4 6 3
6 1 2 5 5 1 3 2 2 3 2 2 0 1 3 3 5 4 6 5 8 4 2 2 3 5 3 4 3 2 2 3 6 7 5 13 14 15 14 14 14 13 10 12 4 4 5 5 8 7 3 4 5 7
0 1 5 3 1 2 2 2 2 2 2 1 2 2 1 2 4 5 4 2 2 2 2 4 4 5 3 2 2 2 4 4 4 6 5 7 12 11 17 16 19 19 16 15 11 11 11 11 9 7 10 13 6 7
3 2 2 5 2 1 2 2 3 1 2 2 2 2 1 3 4 5 3 1 2 2 1 3 3 3 2 2 3 4 3 4 7 7 6 11 14 15 17 20 18 19 18 18 17 12 12 12 10 9 10 9 8 11
5 5 4 2 0 2 2 2 2 2 1 2 2 2 2 2 4 3 4 3 2 1 2 2 1 2 3 3 4 6 7 7 6 7 9 9 17 18 15 13 16 16 14 14 14 18 12 12 14 12 11 10 10 10
2 0 2 2 1 2 2 2 2 2 2 2 1 3 1 1 2 3 3 4 3 2 2 2 2 3 3 6 9 9 11 10 7 7 8 9 14 16 15 16 17 15 12 13 10 11 15 13 13 11 10 9 8 8
1 0 1 1 2 1 3 1 3 1 3 2 2 2 3 2 1 1 3 1 2 2 3 4 4 6 7 7 9 10 10 8 5 5 7 10 9 10 11 13 14 11 13 14 14 13 12 13 13 10 9 9 6 7
2 0 1 1 2 1 1 1 3 2 3 1 2 3 3 3 1 1 2 1 2 2 5 5 6 8 9 9 8 6 5 5 4 5 8 11 12 13 13 12 12 12 11 14 14 13 11 10 11 11 10 10 9 9
1 1 1 1 2 2 1 2 2 3 2 3 3 3 2 2 4 2 1 2 1 2 2 3 4 4 1 3 4 7 8 5 5 4 8 13 10 11 11 10 10 12 13 13 13 12 9 8 8 10 10 10 11 11
1 1 2 3 3 3 3 2 3 3 3 3 3 3 2 2 2 2 3 3 1 2 1 0 2 4 6 6 7 6 6 8 9 6 8 10 11 10 10 9 9 11 14 14 13 13 10 8 8 8 9 12 12 10
2 3 4 2 2 3 2 2 3 2 2 2 2 0 2 2 2 2 2 2 2 3 3 4 5 6 5 6 5 7 8 9 10 9 9 9 9 9 8 7 6 8 13 13 13 12 12 9 7 8 7 6 8 10
2 3 3 3 3 2 4 4 3 3 2 2 3 3 2 1 3 2 2 5 3 4 3 3 5 7 6 7 6 5 7 7 8 9 9 7 7 6 7 9 9 11 11 11 12 12 11 11 10 9 9 9 6 7
3 2 3 3 3 3 3 3 2 3 1 0 1 2 2 1 0 2 1 2 1 1 0 2 4 7 7 7 6 7 7 8 9 8 8 6 3 4 6 9 9 11 8 8 9 11 10 11 10 10 10 10 11 10
3 2 3 4 4 4 4 3 1 3 0 2 3 1 1 1 1 1 2 0 3 1 3 6 7 8 8 6 5 5 7 9 10 10 9 6 6 6 7 10 11 11 11 12 10 10 7 10 10 11 10 10 9 8
3 4 3 3 3 2 2 1 2 3 2 2 1 1 3 3 3 1 4 5 3 2 5 6 7 8 9 10 9 7 6 4 7 10 8 8 11 14 12 12 12 13 13 13 12 12 9 10 12 11 10 11 10 9
3 5 4 5 1 2 3 3 4 2 2 3 3 4 2 2 4 5 5 2 3 3 7 7 9 9 11 12 11 10 8 6 9 11 11 13 14 14 13 12 13 13 12 13 13 13 12 12 13 12 12 12 13 11
5 6 3 2 1 2 1 2 2 2 1 2 2 1 3 3 2 4 4 6 5 7 3 7 10 12 13 12 10 9 7 10 11 11 12 13 14 14 14 15 15 15 15 16 16 15 14 14 15 14 14 13 12 12
3 4 3 1 1 2 3 3 1 1 2 1 1 2 2 2 2 3 1 2 3 5 7 8 10 12 9 8 8 8 8 10 11 13 13 15 16 16 16 17 18 18 19 19 19 19 19 18 17 16 16 15 15 14
Wind_Direction
266 264 272 290 298 307 321 331 338 347 351 353 354 354 357 358 2 16 16 10 353 318 308 243 232 257 205 256 295 74 223 190 241 244 266 223 258 239 254 258 254 234 215 220 231 243 238 57 207 258 9 340 335 336
253 247 256 277 286 297 314 321 330 340 347 348 347 347 350 349 352 16 345 353 345 266 6 283 274 266 265 308 308 134 356 338 11 279 239 307 241 247 261 253 227 246 262 285 276 267 144 61 70 46 359 332 334 326
248 240 244 264 269 274 298 317 323 332 339 340 340 337 338 339 344 356 333 346 332 300 213 216 172 157 224 234 240 294 123 357 280 359 324 297 261 297 259 240 265 241 289 264 262 242 48 305 140 4 344 326 319 322
231 225 230 246 270 294 309 315 320 327 331 331 330 325 320 320 344 350 329 340 326 300 292 105 137 186 229 207 222 231 266 248 286 282 275 269 266 237 269 272 280 265 348 266 257 265 279 183 29 351 336 331 328 326
224 224 233 238 282 307 309 316 316 320 324 325 321 313 303 318 324 334 318 342 281 335 340 341 303 245 9 240 242 238 247 254 255 252 239 247 254 275 255 261 252 246 246 247 251 53 319 22 340 325 334 331 338 332
215 210 219 229 264 280 303 314 319 321 323 326 327 319 295 315 320 278 187 101 199 203 271 315 60 203 225 235 229 237 244 253 250 247 256 251 253 245 263 248 249 246 251 257 271 357 319 314 306 343 321 330 352 333
197 203 205 215 256 291 319 319 320 324 325 317 314 298 240 281 329 302 14 68 159 282 288 299 180 145 232 261 247 259 291 220 262 253 233 255 260 221 251 256 251 252 254 245 266 292 288 307 315 312 314 318 313 311
188 193 192 223 270 319 323 326 327 334 332 327 305 270 233 271 286 218 61 240 234 273 265 295 331 249 155 312 329 79 250 222 217 248 237 238 250 245 248 255 257 249 252 257 256 261 275 289 297 304 302 307 299 293
184 190 204 236 298 323 329 330 334 339 336 339 352 104 125 181 192 80 139 159 197 275 312 284 324 345 124 31 0 295 255 233 201 219 231 222 222 223 237 244 252 246 237 246 249 249 258 269 287 289 298 286 244 290
183 199 218 266 308 325 325 330 335 339 0 80 99 233 107 49 226 130 209 219 209 189 233 250 263 276 95 319 271 282 202 249 247 220 228 228 244 250 254 262 260 250 249 238 242 233 227 257 270 317 304 286 289 262
187 202 238 285 314 323 327 319 323 329 353 251 241 103 52 159 220 223 217 249 154 247 206 237 270 286 161 229 244 232 304 275 271 50 281 253 253 258 327 314 291 259 249 248 238 227 184 255 268 294 291 287 316 299
191 216 266 301 316 325 325 320 336 70 125 297 311 281 233 215 222 245 200 172 230 314 291 288 342 247 170 142 240 202 261 273 271 5 280 263 294 292 269 250 257 264 270 227 228 182 166 247 260 257 270 279 293 315
218 272 291 307 319 327 339 349 27 194 271 202 233 222 252 177 260 318 25 1 326 329 310 330 330 62 156 199 251 276 266 276 344 338 282 265 301 305 298 271 252 221 233 237 217 211 173 232 241 215 262 277 262 284
271 293 302 310 311 356 347 315 245 318 237 247 248 324 279 150 10 345 321 308 313 311 317 324 314 277 111 211 313 281 306 318 324 292 297 300 310 311 325 86 184 211 225 211 206 213 214 231 253 252 269 273 275 279
298 307 310 172 100 338 327 258 216 263 272 255 244 287 210 325 304 326 330 309 317 329 314 306 272 233 164 241 192 312 336 2 3 286 257 295 325 336 354 20 127 161 154 141 137 192 239 249 265 252 259 265 269 274
318 324 161 194 312 314 272 209 217 241 241 248 249 265 345 326 335 319 336 328 341 337 302 169 257 238 219 220 85 32 349 337 285 262 324 334 346 354 4 14 22 42 97 112 34 298 275 258 236 243 239 260 262 314
327 140 207 295 311 258 163 180 206 231 286 237 167 360 355 274 280 308 304 333 331 295 318 303 335 11 323 42 33 8 280 249 295 314 320 329 340 353 5 18 30 35 42 57 47 53 56 56 48 39 60 35 53 68
145 278 302 281 194 169 195 227 254 244 233 256 316 7 289 254 290 324 333 318 313 340 297 20 342 27 38 22 334 266 269 293 272 308 8 328 327 353 14 19 17 24 32 43 45 60 50 53 50 35 26 2 36 24
303 282 178 142 135 239 217 187 264 306 24 340 326 292 12 266 277 296 320 56 39 48 350 28 48 22 19 321 297 316 310 334 327 312 325 18 8 7 8 360 5 17 19 18 25 26 49 46 44 42 31 15 33 31
90 87 89 75 84 250 215 162 245 275 284 36 286 11 347 302 328 341 47 40 44 112 89 63 79 200 211 235 274 306 326 332 323 336 13 20 8 5 15 14 355 360 16 16 15 18 24 39 29 24 26 23 18 29
101 239 14 37 246 276 300 254 216 324 318 260 136 299 328 268 355 10 27 334 55 46 96 162 236 270 289 288 293 301 312 333 336 359 359 359 2 3 0 3 1 3 12 13 11 17 8 12 9 7 5 23 13 21
186 121 314 301 281 256 260 185 313 360 253 297 258 247 258 269 319 33 329 2 25 18 345 323 313 311 304 309 322 312 309 311 318 325 341 352 360 359 358 1 359 1 2 13 3 3 10 9 5 354 12 5 5 37
128 40 248 264 253 175 249 219 249 203 252 203 219 232 213 204 169 154 245 323 338 346 325 316 311 295 290 311 319 335 330 321 329 1 359 352 353 360 355 0 360 3 359 0 356 1 6 5 18 15 28 30 30 30
128 242 253 241 211 262 191 225 225 249 241 233 229 246 215 199 144 185 270 256 92 5 349 1 345 343 328 281 351 7 2 335 315 333 360 348 354 1 357 357 2 6 2 352 2 359 5 19 15 32 26 28 30 27
263 219 178 267 230 232 225 211 219 229 258 218 253 239 176 146 222 159 171 238 142 39 314 9 351 360 348 352 356 9 8 345 341 328 3 349 346 350 360 359 1 17 6 3 4 359 1 3 12 22 32 23 10 21
267 178 192 216 178 231 203 252 218 258 282 262 248 276 133 144 149 189 190 343 360 311 5 4 349 345 354 9 344 359 357 346 334 330 354 345 340 345 351 351 352 14 6 358 356 354 352 348 356 351 1 18 22 356
255 219 214 234 293 297 265 248 263 270 288 311 330 290 209 97 50 264 257 220 269 23 24 0 344 340 337 334 342 345 339 339 338 329 322 318 333 335 333 340 344 343 338 339 348 349 344 338 337 337 332 328 335 340
259 281 217 162 226 218 269 270 207 201 219 37 227 151 182 211 193 208 181 97 25 147 336 333 342 333 326 324 314 317 331 333 334 333 320 266 280 321 330 334 334 331 316 313 327 332 340 337 335 329 327 324 320 319
230 216 228 240 230 226 230 264 86 86 19 312 328 41 293 142 197 178 69 273 179 187 287 318 351 335 327 325 294 292 321 338 346 342 342 335 332 330 338 329 326 327 327 319 307 289 307 322 318 321 312 310 313 311
226 189 212 249 240 234 78 15 78 141 157 127 157 242 218 180 131 138 154 165 208 238 323 335 331 336 341 337 334 329 314 333 344 345 338 334 333 325 320 319 323 324 326 319 311 309 289 295 308 300 306 311 306 317
141 186 231 232 269 55 65 131 142 132 160 209 212 268 101 129 147 190 207 210 199 255 288 331 338 339 345 339 336 328 321 345 347 332 330 323 322 324 321 317 313 316 315 315 312 307 307 301 304 306 307 310 310 298
194 214 241 245 143 101 106 194 219 224 191 238 178 173 179 211 226 153 198 217 234 263 331 318 334 342 341 336 329 320 307 301 310 324 325 327 326 324 321 317 313 309 309 308 303 300 300 299 297 302 303 302 303 302
204 209 229 161 176 204 197 225 214 182 216 218 214 213 217 285 344 73 94 218 301 328 329 332 333 333 332 329 329 323 315 313 311 308 311 313 312 308 305 306 308 309 307 305 304 304 303 301 296 295 295 293 296 297